TimeEDT,TemperatureF,Dew PointF,Humidity,Sea Level PressureIn,VisibilityMPH,Wind Direction,Wind SpeedMPH,Gust SpeedMPH,PrecipitationIn,Events,Conditions,WindDirDegrees,DateUTC
12:53 AM,66.9,66.9,100,29.93,8.0,SE,5.8,-,N/A,,Clear,130,2013-09-21 04:53:00
1:53 AM,69.1,66.0,90,29.92,10.0,SSE,3.5,-,N/A,,Clear,150,2013-09-21 05:53:00
2:53 AM,70.0,66.9,90,29.90,10.0,SSE,4.6,-,N/A,,Clear,160,2013-09-21 06:53:00
3:53 AM,69.1,66.9,93,29.88,10.0,SSE,3.5,-,N/A,,Clear,150,2013-09-21 07:53:00
4:53 AM,69.1,66.9,93,29.87,10.0,SSE,3.5,-,N/A,,Clear,150,2013-09-21 08:53:00
5:53 AM,68.0,66.0,93,29.87,10.0,Calm,Calm,-,0.01,,Clear,0,2013-09-21 09:53:00
6:53 AM,66.0,64.9,96,29.88,8.0,SE,3.5,-,N/A,,Clear,130,2013-09-21 10:53:00
7:53 AM,66.9,66.9,100,29.88,7.0,SE,3.5,-,N/A,,Clear,130,2013-09-21 11:53:00
8:53 AM,70.0,68.0,93,29.87,8.0,SSE,3.5,-,N/A,,Clear,150,2013-09-21 12:53:00
9:53 AM,73.0,68.0,84,29.86,9.0,South,6.9,-,N/A,,Clear,190,2013-09-21 13:53:00
10:53 AM,75.9,69.1,79,29.87,10.0,South,8.1,-,N/A,,Clear,190,2013-09-21 14:53:00
11:53 AM,79.0,69.1,72,29.85,10.0,SSW,12.7,-,N/A,,Scattered Clouds,210,2013-09-21 15:53:00
12:53 PM,81.0,69.1,67,29.82,10.0,SSW,8.1,16.1,N/A,,Partly Cloudy,200,2013-09-21 16:53:00
1:53 PM,81.0,68.0,65,29.79,10.0,SSW,9.2,-,N/A,,Scattered Clouds,210,2013-09-21 17:53:00
2:53 PM,81.0,69.1,67,29.77,10.0,SW,9.2,18.4,N/A,,Overcast,220,2013-09-21 18:53:00
3:53 PM,77.0,72.0,84,29.75,10.0,SW,4.6,-,0.00,Rain,Light Rain,220,2013-09-21 19:53:00
4:15 PM,75.2,71.6,89,29.77,1.8,WSW,8.1,-,0.03,Rain,Rain,250,2013-09-21 20:15:00
4:28 PM,73.4,73.4,100,29.76,3.0,SW,3.5,-,0.11,Rain,Light Rain,220,2013-09-21 20:28:00
4:53 PM,73.9,73.0,97,29.74,10.0,WSW,4.6,-,0.12,,Scattered Clouds,240,2013-09-21 20:53:00
5:53 PM,73.9,72.0,93,29.75,1.0,WSW,20.7,25.3,0.04,Rain,Heavy Rain,250,2013-09-21 21:53:00
5:55 PM,73.4,71.6,94,29.76,0.8,WSW,13.8,25.3,0.04,Rain,Heavy Rain,240,2013-09-21 21:55:00
6:41 PM,71.6,71.6,100,29.77,2.0,WSW,4.6,-,1.07,Rain,Rain,240,2013-09-21 22:41:00
6:48 PM,71.6,71.6,100,29.77,3.0,SSW,4.6,-,1.09,Rain,Rain,210,2013-09-21 22:48:00
6:49 PM,71.1,71.1,100,29.76,3.0,SSW,4.6,-,1.09,Rain,Light Rain,210,2013-09-21 22:49:00
7:53 PM,71.1,71.1,100,29.75,8.0,SSW,3.5,-,0.04,Rain,Light Rain,200,2013-09-21 23:53:00
8:20 PM,71.6,71.6,100,29.76,10.0,SSW,3.5,-,0.02,Rain,Light Rain,210,2013-09-22 00:20:00
8:53 PM,71.1,70.0,96,29.74,10.0,SW,4.6,-,0.03,Rain,Light Rain,220,2013-09-22 00:53:00
9:24 PM,71.6,69.8,94,29.76,10.0,WSW,3.5,-,0.00,,Mostly Cloudy,250,2013-09-22 01:24:00
9:35 PM,71.6,69.8,94,29.77,10.0,WSW,3.5,-,0.00,,Overcast,250,2013-09-22 01:35:00
9:53 PM,71.1,70.0,96,29.75,10.0,SW,4.6,-,0.00,,Overcast,230,2013-09-22 01:53:00
9:57 PM,71.6,69.8,94,29.77,10.0,SW,3.5,-,N/A,,Overcast,230,2013-09-22 01:57:00
10:49 PM,71.6,69.8,94,29.77,10.0,SW,4.6,-,N/A,,Overcast,230,2013-09-22 02:49:00
10:53 PM,71.1,70.0,96,29.75,10.0,WSW,4.6,-,N/A,,Overcast,240,2013-09-22 02:53:00
11:16 PM,71.6,69.8,94,29.77,10.0,WNW,4.6,-,N/A,,Overcast,300,2013-09-22 03:16:00
11:35 PM,69.8,68.0,94,29.77,6.0,WNW,6.9,-,0.00,Rain,Light Rain,300,2013-09-22 03:35:00
11:53 PM,68.0,66.0,93,29.77,8.0,WNW,9.2,-,0.01,Rain,Light Rain,300,2013-09-22 03:53:00